Weather History for Fort Smith, AR

Change the Weather History Date:

Monday, July 22, 2013

  Actual Average Record
Temperature  
Mean Temperature 86 °F 83 °F  
Max Temperature 97 °F 94 °F 106 °F (1943)
Min Temperature 75 °F 72 °F 51 °F (1970)
Cooling Degree Days 21 18  
Month to date cooling degree days 389 376  
Year to date cooling degree days 1116 1005  
Since 1 June cooling degree days 842 761  
Growing Degree Days 36 (Base 50)    
Moisture  
Dew Point 71 °F    
Average Humidity 72    
Maximum Humidity 94    
Minimum Humidity 49    
Precipitation  
Precipitation T in 0.10 in 3.88 in (1950)
Month to date precipitation 0.38 2.38  
Year to date precipitation 27.46 25.85  
Sea Level Pressure  
Sea Level Pressure 29.88 in    
Wind  
Wind Speed 5 mph (SSE)    
Max Wind Speed 22 mph    
Max Gust Speed 28 mph    
Visibility 10 miles    
Events Thunderstorm    
T = Trace of Precipitation, MM = Missing Value Source: NWS Daily Summary

Daily Weather History Graph

Daily Weather History Graph

Search for Another Location

Airport:

Trip Planner

Search our weather history database for the weather conditions in past years. The results will help you decide how hot, cold, wet, or windy it might be!

Date:

Astronomy

Jul. 22, 2013 Rise Set
Actual Time 6:18 AM CDT 8:28 PM CDT
Civil Twilight 5:50 AM CDT 8:57 PM CDT
Nautical Twilight 5:15 AM CDT 9:31 PM CDT
Astronomical Twilight 4:37 AM CDT 10:09 PM CDT
Moon 8:18 PM CDT (7/22) 6:13 AM CDT (7/22)
Length of Visible Light 15h 06m
Length of Day
14h 09m
Full, 100% of the Moon is Illuminated
Jul 22
Full
Jul 22
Full
Jul 29
Last Quarter
Aug 6
New
Aug 14
First Quarter

Hourly Weather History & Observations

Time (CDT) Temp. Heat Index Dew Point Humidity Pressure Visibility Wind Dir Wind Speed Gust Speed Precip Events Conditions
12:53 AM 82.9 °F 87.5 °F 71.1 °F 67% 29.85 in 10.0 mi WSW 4.6 mph - N/A   Clear
1:53 AM 81.0 °F 84.9 °F 71.1 °F 72% 29.84 in 10.0 mi SW 3.5 mph - N/A   Clear
2:53 AM 81.0 °F 84.4 °F 70.0 °F 69% 29.84 in 10.0 mi Calm Calm - N/A   Clear
3:53 AM 80.1 °F 83.2 °F 70.0 °F 71% 29.83 in 10.0 mi SW 5.8 mph - N/A   Clear
4:53 AM 75.9 °F - 73.0 °F 91% 29.85 in 8.0 mi ENE 3.5 mph - N/A   Clear
5:53 AM 75.9 °F - 73.0 °F 91% 29.85 in 7.0 mi Calm Calm - N/A   Clear
6:53 AM 75.9 °F - 73.0 °F 91% 29.87 in 7.0 mi Calm Calm - N/A   Clear
7:53 AM 82.0 °F 87.4 °F 73.0 °F 74% 29.89 in 10.0 mi Calm Calm - N/A   Clear
8:53 AM 84.0 °F 91.2 °F 73.9 °F 72% 29.92 in 10.0 mi ENE 9.2 mph - N/A   Mostly Cloudy
9:30 AM 84.2 °F 90.9 °F 73.4 °F 70% 29.95 in 10.0 mi East 10.4 mph - N/A   Mostly Cloudy
9:53 AM 84.0 °F 90.2 °F 73.0 °F 69% 29.94 in 10.0 mi ENE 12.7 mph - N/A   Overcast
10:23 AM 86.0 °F 93.4 °F 73.4 °F 66% 29.94 in 10.0 mi East 11.5 mph 19.6 mph N/A   Mostly Cloudy
10:53 AM 87.1 °F 94.5 °F 73.0 °F 63% 29.92 in 10.0 mi SSE 8.1 mph - N/A   Clear
11:53 AM 90.0 °F 99.0 °F 73.9 °F 59% 29.91 in 10.0 mi SSW 5.8 mph - N/A   Overcast
12:53 PM 91.9 °F 100.7 °F 73.0 °F 54% 29.91 in 10.0 mi South 5.8 mph - N/A   Overcast
1:53 PM 95.0 °F 104.5 °F 73.0 °F 49% 29.88 in 10.0 mi Calm Calm - N/A   Clear
2:53 PM 93.9 °F 104.0 °F 73.9 °F 52% 29.86 in 10.0 mi Variable 4.6 mph - N/A   Mostly Cloudy
3:24 PM 95.0 °F 104.5 °F 73.4 °F 49% 29.89 in 10.0 mi SSW 8.1 mph - 0.00 in Thunderstorm Scattered Clouds
3:53 PM 95.0 °F 105.2 °F 73.9 °F 50% 29.87 in 10.0 mi SW 11.5 mph - 0.00 in Thunderstorm Partly Cloudy
4:15 PM 93.2 °F 102.4 °F 73.4 °F 52% 29.89 in 10.0 mi SW 10.4 mph - N/A   Clear
4:29 PM 89.6 °F 96.2 °F 71.6 °F 55% 29.90 in 10.0 mi West 21.9 mph 27.6 mph N/A Thunderstorm Clear
4:40 PM 87.8 °F 89.4 °F 64.4 °F 46% 29.90 in 10.0 mi West 11.5 mph - N/A Thunderstorm Clear
4:53 PM 86.0 °F 87.3 °F 64.0 °F 48% 29.91 in 10.0 mi West 15.0 mph - N/A Thunderstorm Clear
5:01 PM 84.2 °F 85.6 °F 64.4 °F 51% 29.91 in 10.0 mi West 8.1 mph 18.4 mph N/A Thunderstorm Partly Cloudy
5:22 PM 84.2 °F 85.6 °F 64.4 °F 51% 29.85 in 10.0 mi South 10.4 mph - N/A   Scattered Clouds
5:53 PM 86.0 °F 87.6 °F 64.9 °F 49% 29.83 in 10.0 mi SW 3.5 mph - N/A   Clear
6:53 PM 86.0 °F 90.1 °F 69.1 °F 57% 29.83 in 10.0 mi ESE 6.9 mph - N/A   Clear
7:53 PM 84.0 °F 87.8 °F 69.1 °F 61% 29.85 in 10.0 mi East 5.8 mph - N/A   Clear
8:53 PM 81.0 °F 84.1 °F 69.1 °F 67% 29.85 in 10.0 mi East 4.6 mph - N/A   Clear
9:53 PM 79.0 °F - 69.1 °F 72% 29.86 in 10.0 mi ENE 3.5 mph - N/A   Clear
10:53 PM 77.0 °F - 70.0 °F 79% 29.86 in 10.0 mi East 3.5 mph - N/A   Partly Cloudy
11:53 PM 78.1 °F - 70.0 °F 76% 29.87 in 10.0 mi NE 5.8 mph - N/A   Clear